Date String (YYYY-MM-DD hh:mm:ss) UTC,Instrument flags,Ambient pressure (hPa),Sample flow (lpm),Bypass flow (lpm),Sample temperature (°C),Ambient temperature (°C),ASC tube jacket temperature (°C),LED temperature (°C),Box temperature (°C),Sample RH (%),Span deviation,Mass concentration (μg/m³),Mass concentration (μg/m³),Mass concentration (μg/m³)
DateTimeUTC,F1_M11,P_M11,Q1_M11,Q2_M11,T1_M11,T2_M11,T3_M11,T4_M11,T5_M11,U1_M11,ZSPAN_M11,X0_M11,X2_M11,X1_M11
2022-12-29 22:00:00,,0818.0,5.02,0.00,22.0,22.5,00.0,30.7,24.1,07.7,0000.0,0002.51,0000.70,0000.58
2022-12-29 22:01:00,,0818.0,4.99,0.00,22.0,22.1,00.0,30.8,24.0,07.5,0000.0,0002.46,0000.66,0000.55
2022-12-29 22:02:00,,0817.8,4.98,0.00,22.0,21.6,00.0,30.8,23.9,07.7,0000.0,0001.77,0000.62,0000.52
2022-12-29 22:03:00,,0817.8,4.99,0.00,22.0,21.2,00.0,30.8,23.8,07.2,0000.0,0000.94,0000.57,0000.49
2022-12-29 22:04:00,,0817.9,5.02,0.00,22.0,20.9,00.0,30.8,23.7,07.0,0000.0,0000.90,0000.55,0000.46
2022-12-29 22:05:00,,0818.0,5.02,0.00,22.0,20.7,00.0,30.8,23.6,07.3,0000.0,0001.02,0000.56,0000.46
2022-12-29 22:06:00,,0817.9,4.98,0.00,21.9,20.5,00.0,30.8,23.5,07.5,0000.0,0001.08,0000.56,0000.45
2022-12-29 22:07:00,,0817.7,4.99,0.00,21.9,20.4,00.0,30.8,23.4,07.4,0000.0,0001.14,0000.56,0000.44
2022-12-29 22:08:00,,0817.8,4.96,0.00,21.8,20.3,00.0,30.8,23.4,07.4,0000.0,0001.19,0000.60,0000.44
2022-12-29 22:09:00,,0818.0,5.06,0.00,21.8,20.2,00.0,30.8,23.3,07.0,0000.0,0001.12,0000.59,0000.44
2022-12-29 22:10:00,,0818.0,4.99,0.00,21.8,20.1,00.0,30.8,23.3,07.2,0000.0,0001.14,0000.60,0000.44
2022-12-29 22:11:00,,0818.1,5.02,0.00,21.7,20.1,00.0,30.8,23.3,07.7,0000.0,0001.22,0000.65,0000.47
2022-12-29 22:12:00,,0818.2,4.97,0.00,21.7,20.2,00.0,30.7,23.2,08.5,0000.0,0001.37,0000.73,0000.54
2022-12-29 22:13:00,,0818.2,4.97,0.00,21.8,21.0,00.0,30.7,23.5,09.1,0000.0,0001.56,0000.90,0000.69
2022-12-29 22:14:00,,0818.3,5.01,0.00,21.9,21.9,00.0,30.7,23.8,09.2,0000.0,0001.79,0001.10,0000.89
2022-12-29 22:15:00,,0818.3,5.02,0.00,22.0,22.3,00.0,30.7,23.9,09.1,0000.0,0001.98,0001.28,0001.05
2022-12-29 22:16:00,,0818.2,5.02,0.00,22.0,21.4,00.0,30.8,23.7,10.7,0000.0,0002.18,0001.59,0001.37
2022-12-29 22:17:00,,0818.2,4.99,0.00,21.9,20.7,00.0,30.8,23.5,11.4,0000.0,0002.57,0002.03,0001.80
2022-12-29 22:18:00,,0818.2,4.97,0.00,21.8,20.2,00.0,30.8,23.3,10.6,0000.0,0002.91,0002.40,0002.17
2022-12-29 22:19:00,,0818.3,5.03,0.00,21.7,19.9,00.0,30.8,23.2,09.4,0000.0,0002.96,0002.60,0002.41
2022-12-29 22:20:00,,0818.3,5.02,0.00,21.6,19.6,00.0,30.7,23.1,09.4,0000.0,0003.24,0002.82,0002.62
2022-12-29 22:21:00,,0818.4,4.99,0.00,21.5,19.3,00.0,30.7,22.9,10.3,0000.0,0003.78,0003.10,0002.91
2022-12-29 22:22:00,,0818.3,4.99,0.00,21.4,19.1,00.0,30.7,22.8,10.8,0000.0,0004.18,0003.32,0003.18
2022-12-29 22:23:00,,0818.3,5.00,0.00,21.4,19.0,00.0,30.6,22.7,10.7,0000.0,0004.49,0003.48,0003.33
2022-12-29 22:24:00,,0818.4,5.03,0.00,21.3,18.8,00.0,30.6,22.6,10.7,0000.0,0004.74,0003.58,0003.42
2022-12-29 22:25:00,,0818.4,5.03,0.00,21.2,18.7,00.0,30.5,22.5,10.5,0000.0,0004.89,0003.66,0003.50
2022-12-29 22:26:00,,0818.3,4.97,0.00,21.2,19.6,00.0,30.4,22.7,09.3,0000.0,0004.97,0003.69,0003.53
2022-12-29 22:27:00,,0818.3,4.97,0.00,21.3,21.1,00.0,30.4,23.1,08.8,0000.0,0004.81,0003.59,0003.43
2022-12-29 22:28:00,,0818.3,5.02,0.00,21.5,21.9,00.0,30.4,23.4,09.6,0000.0,0004.55,0003.47,0003.32
2022-12-29 22:29:00,,0818.2,5.00,0.00,21.5,21.4,00.0,30.4,23.4,09.2,0000.0,0004.39,0003.38,0003.24
2022-12-29 22:30:00,,0818.2,4.97,0.00,21.5,20.7,00.0,30.5,23.1,08.5,0000.0,0004.39,0003.34,0003.17
2022-12-29 22:31:00,,0818.1,4.98,0.00,21.4,20.1,00.0,30.4,22.9,08.3,0000.0,0004.25,0003.27,0003.09
2022-12-29 22:32:00,,0818.2,5.04,0.00,21.3,19.6,00.0,30.4,22.8,07.9,0000.0,0003.72,0003.10,0002.83
2022-12-29 22:33:00,,0818.1,5.02,0.00,21.3,19.3,00.0,30.4,22.7,08.1,0000.0,0003.28,0002.74,0002.50
2022-12-29 22:34:00,,0818.1,4.97,0.00,21.2,19.2,00.0,30.4,22.6,08.2,0000.0,0002.82,0002.38,0002.18
2022-12-29 22:35:00,,0818.2,5.00,0.00,21.1,19.2,00.0,30.3,22.6,08.1,0000.0,0003.03,0002.06,0001.89
2022-12-29 22:36:00,,0818.1,5.03,0.00,21.1,19.1,00.0,30.3,22.5,08.3,0000.0,0002.80,0001.73,0001.58
2022-12-29 22:37:00,,0818.1,5.00,0.00,21.0,19.1,00.0,30.3,22.4,08.0,0000.0,0002.54,0001.51,0001.37
2022-12-29 22:38:00,,0818.1,5.00,0.00,21.0,19.2,00.0,30.2,22.4,08.1,0000.0,0002.46,0001.36,0001.23
2022-12-29 22:39:00,,0818.1,4.97,0.00,21.0,19.7,00.0,30.2,22.5,08.0,0000.0,0002.29,0001.14,0001.01
2022-12-29 22:40:00,,0818.1,5.01,0.00,21.1,21.1,00.0,30.1,22.9,08.2,0000.0,0002.09,0000.94,0000.81
2022-12-29 22:41:00,,0818.2,5.03,0.00,21.3,22.1,00.0,30.1,23.3,08.5,0000.0,0001.88,0000.79,0000.69
2022-12-29 22:42:00,,0818.1,4.99,0.00,21.4,22.0,00.0,30.2,23.3,08.5,0000.0,0001.77,0000.71,0000.62
2022-12-29 22:43:00,,0818.1,4.97,0.00,21.4,21.2,00.0,30.2,23.2,08.1,0000.0,0001.72,0000.67,0000.59
2022-12-29 22:44:00,,0818.2,5.02,0.00,21.3,20.5,00.0,30.3,23.0,08.0,0000.0,0001.72,0000.65,0000.56
2022-12-29 22:45:00,,0818.2,5.01,0.00,21.3,20.1,00.0,30.3,22.8,07.8,0000.0,0001.68,0000.61,0000.53
2022-12-29 22:46:00,,0818.2,5.02,0.00,21.2,19.7,00.0,30.2,22.7,07.8,0000.0,0001.02,0000.58,0000.51
2022-12-29 22:47:00,,0818.2,4.97,0.00,21.2,19.5,00.0,30.2,22.7,07.9,0000.0,0001.91,0000.55,0000.48
2022-12-29 22:48:00,,0818.2,5.00,0.00,21.1,19.3,00.0,30.2,22.5,08.2,0000.0,0002.05,0000.54,0000.47
2022-12-29 22:49:00,,0818.3,5.00,0.00,21.1,19.1,00.0,30.2,22.5,08.2,0000.0,0002.01,0000.55,0000.46
2022-12-29 22:50:00,,0818.3,4.98,0.00,21.0,19.0,00.0,30.2,22.5,08.1,0000.0,0001.95,0000.54,0000.45
2022-12-29 22:51:00,,0818.3,4.99,0.00,21.0,19.2,00.0,30.1,22.4,08.1,0000.0,0001.99,0000.55,0000.44
2022-12-29 22:52:00,,0818.4,4.97,0.00,21.0,19.3,00.0,30.1,22.5,08.1,0000.0,0001.99,0000.55,0000.44
2022-12-29 22:53:00,,0818.4,5.03,0.00,20.9,19.4,00.0,30.1,22.4,08.1,0000.0,0001.94,0000.53,0000.44
2022-12-29 22:54:00,,0818.4,5.03,0.00,21.0,19.9,00.0,30.0,22.6,08.0,0000.0,0001.95,0000.54,0000.45
2022-12-29 22:55:00,,0818.4,4.99,0.00,21.1,21.3,00.0,30.0,23.0,07.9,0000.0,0001.91,0000.53,0000.45
2022-12-29 22:56:00,,0818.4,4.98,0.00,21.3,22.4,00.0,30.0,23.3,07.8,0000.0,0001.96,0000.55,0000.46
2022-12-29 22:57:00,,0818.4,5.04,0.00,21.4,22.4,00.0,30.1,23.5,07.7,0000.0,0001.98,0000.56,0000.46
2022-12-29 22:58:00,,0818.4,4.97,0.00,21.5,21.9,00.0,30.2,23.4,07.8,0000.0,0000.96,0000.56,0000.46
2022-12-29 22:59:00,,0818.4,4.99,0.00,21.5,21.6,00.0,30.2,23.4,07.9,0000.0,0000.79,0000.55,0000.46
